This is the latest recevied weather packets stored in our database for station/object WB6ANP. If no packets are shown the sender has not sent any weather packets the latest 10 day(s).
| Time | Temp. | Humidity | Pressure | Rain* | Wind** | Luminosity | Snow |
|---|---|---|---|---|---|---|---|
| 1777920544 | 26.67° C | 56% | 1009.5 hPa | 0 mm | - | 924 W/m² | - |
| 1777920240 | 26.67° C | 53% | 1009.7 hPa | 0 mm | - | 862 W/m² | - |
| 1777919936 | 26.67° C | 52% | 1009.8 hPa | 0 mm | - | 965 W/m² | - |
| 1777919634 | 26.67° C | 55% | 1009.8 hPa | 0 mm | - | 778 W/m² | - |
| 1777919331 | 26.67° C | 54% | 1009.7 hPa | 0 mm | - | 799 W/m² | - |
| 1777919029 | 26.67° C | 53% | 1010 hPa | 0 mm | - | 926 W/m² | - |
| 1777918725 | 26.67° C | 53% | 1009.9 hPa | 0 mm | - | 950 W/m² | - |
| 1777918423 | 26.11° C | 56% | 1009.8 hPa | 0 mm | - | 921 W/m² | - |
| 1777918121 | 25.56° C | 56% | 1010 hPa | 0 mm | - | 916 W/m² | - |
| 1777917819 | 25.56° C | 56% | 1010.1 hPa | 0 mm | - | 947 W/m² | - |
| 1777917517 | 25.56° C | 57% | 1010.2 hPa | 0 mm | - | 940 W/m² | - |
| 1777917214 | 25.56° C | 58% | 1010.6 hPa | 0 mm | - | 944 W/m² | - |
| 1777916912 | 25° C | 59% | 1010.5 hPa | 0 mm | - | 870 W/m² | - |
| 1777916609 | 25° C | 59% | 1010.6 hPa | 0 mm | - | 964 W/m² | - |
| 1777916306 | 25° C | 58% | 1010.6 hPa | 0 mm | - | 792 W/m² | - |
| 1777916003 | 24.44° C | 58% | 1010.9 hPa | 0 mm | - | 851 W/m² | - |
| 1777915700 | 24.44° C | 58% | 1010.7 hPa | 0 mm | - | 590 W/m² | - |
| 1777915396 | 24.44° C | 61% | 1010.8 hPa | 0 mm | - | 472 W/m² | - |
| 1777915092 | 25° C | 58% | 1010.7 hPa | 0 mm | - | 892 W/m² | - |
| 1777914789 | 24.44° C | 58% | 1010.7 hPa | 0 mm | - | 914 W/m² | - |
| 1777914487 | 23.89° C | 60% | 1010.8 hPa | 0 mm | - | 931 W/m² | - |
| 1777914184 | 23.89° C | 60% | 1010.8 hPa | 0 mm | - | 819 W/m² | - |
| 1777913880 | 23.33° C | 60% | 1011 hPa | 0 mm | - | 818 W/m² | - |
| 1777913576 | 23.33° C | 60% | 1011 hPa | 0 mm | - | 862 W/m² | - |
| 1777913272 | 23.33° C | 60% | 1011.1 hPa | 0 mm | - | 882 W/m² | - |
* Rain latest hour (hover to see other rain measurements)
** Current wind speed in m/s (hover to see current wind gust speed)